Temperature
20 20 21 21 21 21 21 21 20 20 19 18 17 17 18 19 18 19 19 19 19 19 18 18 17 16 15 15 14 13 12 12 11 10 10 10 10 10 10 10 10 11 11
18 18 18 20 20 20 20 20 20 19 19 18 18 17 17 18 18 18 18 18 18 17 16 16 16 15 14 13 13 12 11 11 11 10 10 10 10 10 10 10 11 12 11
17 17 18 19 19 19 19 19 19 19 18 18 17 17 16 16 16 17 17 17 16 15 15 14 14 13 12 12 12 12 11 11 11 10 10 10 10 10 11 11 11 11 11
17 18 18 18 18 18 19 19 18 18 17 17 17 16 16 15 16 15 15 15 15 15 15 14 13 12 12 11 11 11 11 11 11 11 11 10 11 10 11 11 11 11 11
17 18 18 18 18 18 18 18 17 17 17 17 16 16 15 15 15 14 14 15 15 15 15 15 14 13 12 12 11 11 11 11 11 11 11 10 10 10 10 10 10 10 10
17 17 17 18 18 18 17 17 17 17 16 16 16 15 15 15 14 14 14 14 14 14 14 14 14 13 12 12 12 12 12 11 11 11 11 11 10 10 10 9 9 9 10
16 16 16 17 17 17 16 16 16 16 16 16 16 15 15 14 14 14 13 13 13 13 13 13 13 13 13 12 12 11 12 12 12 11 11 11 10 10 10 10 10 9 10
16 15 14 15 15 15 15 15 15 15 15 15 15 15 14 14 14 14 14 13 13 13 13 13 13 13 12 12 12 11 12 12 12 12 11 11 11 10 10 10 10 9 9
15 14 14 14 14 15 14 14 14 13 13 13 13 13 13 13 13 13 13 13 13 13 13 13 12 12 12 12 12 12 12 12 12 12 11 11 11 11 10 10 10 9 9
15 14 13 13 13 13 13 12 12 12 12 12 12 12 12 11 11 11 11 11 11 11 11 12 12 12 12 12 11 11 11 12 12 12 11 11 11 11 10 10 10 10 9
14 14 13 13 12 12 12 12 12 11 11 11 11 11 11 11 11 11 10 10 10 10 10 10 10 10 10 11 11 11 11 11 11 11 11 11 11 11 11 10 10 10 9
14 13 13 12 12 12 12 11 11 11 11 11 10 10 10 10 10 10 9 9 9 9 10 10 9 9 9 9 10 10 10 10 10 10 10 10 11 11 11 10 10 10 10
13 13 12 12 12 12 11 11 11 10 10 10 9 9 9 9 9 8 8 8 8 8 8 8 8 8 8 9 9 9 9 9 9 9 9 9 10 10 10 10 10 10 10
13 12 12 12 11 11 10 10 9 9 8 8 8 8 8 8 8 8 8 8 7 7 7 7 7 7 7 8 8 8 8 8 8 8 8 9 9 9 9 9 10 10 10
12 12 11 11 10 10 9 8 8 7 7 6 6 6 6 6 6 7 7 7 6 6 6 6 6 6 6 6 6 7 7 7 7 7 7 8 8 8 8 8 9 9 10
12 11 10 9 9 8 7 7 7 6 6 5 5 5 5 5 4 4 4 4 4 4 4 4 5 5 5 5 5 5 5 6 6 6 7 7 7 7 7 8 8 8 9
11 9 9 8 8 7 6 6 6 5 5 4 4 4 3 3 2 2 2 2 2 3 3 3 3 3 4 4 4 4 4 4 5 4 5 5 6 6 6 7 8 8 9
9 8 8 7 7 6 5 5 4 4 3 3 2 2 2 1 1 1 1 1 1 1 2 2 2 2 3 3 3 3 3 3 3 3 3 4 5 5 5 6 7 7 8
7 7 6 5 5 4 3 3 2 1 1 1 1 0 0 0 0 0 0 0 0 1 1 1 2 2 2 2 2 2 2 1 2 2 2 3 4 4 4 5 5 6 7
5 5 4 3 2 2 1 1 0 -0 -0 -0 -1 -1 -1 -1 -1 -1 -1 -1 -1 -0 -0 0 1 1 1 1 1 1 0 0 0 0 1 2 3 3 3 3 4 5 6
4 4 2 1 1 0 -0 -0 -1 -1 -1 -1 -1 -1 -2 -2 -2 -2 -2 -2 -2 -1 -1 -0 0 0 0 -0 0 0 -1 -1 -1 -1 -0 1 2 3 3 3 4 5 6
3 2 1 1 1 0 0 -0 -1 -1 -1 -2 -2 -2 -3 -3 -3 -3 -3 -3 -2 -2 -2 -1 -1 -1 -2 -2 -2 -1 -1 -2 -2 -1 -0 -0 1 2 3 3 4 5 5
2 1 1 1 1 0 -1 -1 -1 -2 -3 -3 -3 -3 -4 -4 -4 -4 -4 -4 -3 -3 -3 -3 -3 -3 -3 -3 -3 -3 -3 -2 -2 -2 -0 0 1 2 3 4 4 4 5
1 1 1 1 0 -1 -2 -2 -2 -3 -4 -4 -4 -4 -4 -4 -4 -5 -5 -4 -4 -4 -4 -4 -4 -4 -4 -4 -4 -4 -4 -3 -3 -2 -1 -0 1 2 3 3 4 4 4
1 0 -0 -1 -1 -2 -2 -2 -3 -4 -4 -4 -4 -4 -5 -5 -5 -5 -5 -5 -5 -5 -5 -5 -5 -5 -5 -4 -4 -4 -5 -5 -4 -3 -2 -1 -0 1 2 2 3 3 3
-0 -1 -1 -2 -2 -2 -3 -3 -4 -5 -5 -5 -5 -5 -5 -6 -6 -6 -6 -6 -6 -6 -6 -6 -5 -5 -5 -5 -5 -5 -5 -5 -4 -3 -3 -2 -1 -1 -0 1 1 2 2
Wind_Speed
12 12 13 13 12 10 7 5 9 10 9 7 7 8 8 7 7 8 10 11 12 12 12 11 10 10 10 11 10 9 9 9 6 6 7 7 9 11 9 8 9 11 11
9 10 11 12 12 12 11 10 6 5 7 8 7 6 6 7 8 8 11 10 10 9 11 13 10 10 10 11 12 11 9 8 8 7 6 5 6 10 12 13 14 14 11
10 10 11 11 11 11 11 9 10 7 3 5 5 4 4 5 6 7 7 8 9 8 10 11 10 10 11 11 12 11 12 10 9 10 7 6 8 5 7 13 13 11 9
9 9 9 10 10 10 9 9 9 9 7 3 2 6 6 6 8 6 6 8 11 13 13 12 12 12 12 13 13 14 14 13 13 9 12 11 6 6 5 5 7 10 10
9 9 9 9 9 9 9 9 9 10 9 7 6 4 5 6 6 6 8 8 9 12 14 13 12 13 14 15 15 15 16 15 15 13 9 12 13 13 11 8 6 6 9
8 8 8 8 8 9 9 10 11 11 11 10 8 7 7 7 8 9 8 7 6 6 9 11 12 13 13 15 17 17 15 16 16 15 13 10 8 11 13 16 12 9 7
7 6 7 8 9 10 10 10 10 10 10 10 10 9 9 8 8 8 7 8 7 6 8 8 10 12 12 13 14 16 17 17 17 17 16 15 16 10 10 15 17 14 9
6 6 7 7 8 9 10 10 10 10 10 10 9 9 9 6 6 7 8 8 7 7 9 8 8 10 11 12 13 13 16 14 17 18 17 16 16 15 15 15 15 16 13
7 7 6 6 6 7 7 7 8 8 9 9 9 9 9 8 8 8 7 6 7 8 10 11 11 10 9 11 12 12 14 15 17 18 19 19 17 15 14 14 15 17 19
7 6 5 3 3 4 5 6 7 7 7 9 9 8 9 9 9 9 10 10 10 10 11 10 10 11 11 11 10 11 13 15 16 15 18 19 17 15 14 14 15 16 19
6 4 3 2 2 3 5 6 6 7 8 9 9 10 10 10 11 10 11 12 11 12 12 12 11 11 11 11 11 12 13 15 15 15 17 19 17 16 15 14 15 16 17
6 4 3 1 2 4 5 7 8 8 8 9 9 9 9 9 10 10 11 11 12 12 13 13 13 13 12 11 11 13 13 14 15 16 17 18 16 18 17 16 18 18 18
6 3 2 2 4 4 6 8 8 8 9 9 9 9 9 10 10 11 12 12 12 13 13 13 14 14 14 13 12 13 13 12 13 14 17 19 18 20 17 18 19 16 17
6 2 3 5 6 7 8 9 9 9 9 9 9 10 9 10 10 11 12 13 13 13 14 14 15 15 15 15 14 13 12 12 12 13 15 17 19 20 19 18 19 18 19
5 4 5 6 7 8 9 9 9 10 10 10 10 9 9 10 11 12 13 14 14 15 14 15 15 15 14 14 16 17 15 14 14 15 15 16 19 22 21 19 19 17 18
6 6 7 8 9 9 8 8 9 10 10 10 10 9 10 10 11 12 13 13 14 14 15 15 16 16 16 21 23 19 16 15 15 16 17 16 17 19 22 24 25 24 22
7 8 10 10 8 8 8 8 9 10 10 10 10 10 11 12 11 12 13 12 12 13 12 13 14 15 17 22 20 18 16 16 15 16 17 16 15 18 17 20 22 23 27
10 10 8 7 7 8 8 9 10 10 10 10 10 11 12 12 13 12 12 12 12 12 13 13 13 13 16 18 17 19 16 16 16 17 17 18 19 17 19 19 20 20 19
8 7 7 7 7 7 8 8 9 9 9 9 10 11 12 13 13 13 12 13 13 12 12 13 14 14 13 15 17 17 13 15 18 18 18 19 19 22 23 21 21 21 17
8 8 8 7 7 7 7 7 8 8 8 9 10 11 11 13 13 13 13 12 12 12 14 15 14 12 11 16 18 18 12 14 16 18 18 20 22 25 26 22 22 22 17
9 8 6 5 5 5 5 7 8 8 8 9 11 11 12 13 14 12 11 13 14 14 14 15 12 10 13 16 19 22 13 13 16 18 18 18 26 31 32 30 23 24 20
5 4 3 3 5 5 6 7 8 9 9 10 11 12 12 13 15 13 12 13 15 15 13 12 12 10 11 15 19 25 21 21 18 18 18 20 31 35 35 28 26 29 20
2 2 3 5 5 5 6 8 9 9 10 10 11 11 12 11 11 12 13 13 12 12 11 11 12 13 13 15 26 27 28 29 20 18 27 33 36 33 25 24 27 21 7
1 2 4 5 6 6 7 8 9 9 10 11 11 11 11 11 10 10 11 12 12 11 11 12 14 15 15 14 12 13 17 22 20 19 25 30 28 21 18 18 12 3 4
3 4 5 7 7 7 8 9 9 9 10 10 11 11 10 11 11 11 10 12 10 13 16 12 13 15 15 19 27 23 18 18 20 23 17 15 16 15 13 7 3 1 3
4 5 7 8 8 9 9 9 9 9 10 10 10 9 10 10 10 11 13 15 17 25 25 23 21 17 22 30 30 31 32 33 30 21 14 15 16 16 15 11 4 1 2
Wind_Direction
28 22 15 9 3 353 332 246 206 197 188 181 184 197 217 225 226 224 222 218 218 214 211 216 214 213 219 222 217 212 216 223 217 235 256 259 246 242 241 238 236 235 229
42 36 32 23 12 1 352 345 311 233 196 191 193 197 207 221 225 228 229 224 222 220 219 217 217 216 222 225 221 215 218 221 207 214 232 260 262 243 239 240 241 238 231
47 37 34 30 21 10 358 354 348 334 295 183 179 202 226 247 247 244 245 237 231 232 233 229 222 222 224 232 228 221 219 223 217 209 205 220 238 256 239 231 232 226 222
52 45 40 33 24 9 359 359 1 0 355 348 211 215 224 241 250 251 242 230 221 224 225 226 224 226 228 232 232 227 227 223 229 223 221 225 209 224 269 254 227 215 221
57 50 46 45 32 15 8 8 17 18 7 0 347 299 258 254 260 259 254 250 237 226 222 223 226 232 235 236 236 233 229 227 229 227 222 232 238 239 246 260 243 227 219
66 54 46 52 40 26 22 24 29 25 14 8 357 344 321 307 303 297 292 288 280 255 231 223 226 233 239 242 244 243 238 234 231 230 226 218 222 228 235 246 250 245 233
78 55 38 40 38 31 26 26 28 24 16 15 11 1 351 338 324 316 310 306 299 291 267 241 230 232 237 242 244 246 246 240 236 235 235 233 234 227 224 239 252 254 243
85 75 51 47 45 37 27 22 22 20 13 12 8 1 359 354 342 335 331 325 322 317 315 304 273 248 241 242 244 247 249 247 243 242 240 241 241 237 234 236 246 256 256
88 88 74 62 62 50 33 22 17 15 10 4 1 354 354 355 345 336 333 330 329 328 328 324 316 302 279 259 249 249 249 249 247 247 247 248 248 244 241 241 239 246 259
92 91 89 80 63 53 31 20 16 12 4 360 354 347 346 346 343 343 347 346 339 335 331 327 321 315 309 301 287 272 263 257 254 250 249 249 248 247 243 244 244 241 248
116 119 117 116 67 34 24 17 11 14 7 3 356 351 348 352 354 353 349 344 338 334 330 325 319 312 307 305 302 297 290 281 276 267 260 255 248 248 245 244 245 245 243
141 149 153 92 36 19 21 25 19 17 11 3 352 346 348 353 350 345 340 337 333 329 326 324 319 312 304 296 290 290 290 289 288 287 283 275 266 256 250 246 245 245 242
152 151 108 45 20 17 34 32 19 12 7 354 348 345 348 349 346 342 337 332 327 324 321 319 316 314 311 306 296 287 285 284 286 289 289 287 281 272 263 252 248 246 244
152 133 45 26 19 22 33 28 12 8 0 349 346 342 346 347 343 338 332 327 324 322 321 319 318 316 314 311 307 307 305 299 294 289 286 285 283 280 275 267 258 249 245
126 78 43 19 15 28 27 19 8 359 348 343 340 335 340 341 337 332 327 325 323 322 318 317 317 315 316 316 325 327 321 315 308 301 294 289 285 280 279 278 274 264 254
103 64 35 28 31 27 19 12 2 347 338 338 330 334 342 337 329 323 319 318 318 319 319 319 320 321 322 321 321 329 330 322 314 310 305 299 291 288 284 277 272 265 261
88 62 53 45 28 13 10 5 351 336 333 329 329 343 340 329 322 319 318 316 318 315 313 315 316 317 315 314 323 340 335 325 317 314 312 310 305 300 296 292 284 270 257
66 61 48 28 15 6 6 358 342 331 327 326 342 340 331 324 322 320 319 319 318 315 315 311 308 307 309 315 330 340 337 326 320 318 316 315 313 308 303 301 297 287 271
69 59 41 21 4 1 0 345 326 323 321 337 337 328 323 320 320 319 319 317 316 315 313 312 308 307 309 320 332 341 335 326 323 322 319 315 312 310 312 311 306 298 283
60 47 29 8 1 358 349 328 316 314 323 328 321 318 317 317 317 314 313 313 314 311 313 309 306 309 323 330 337 337 329 324 323 321 317 312 309 311 314 312 307 298 288
51 38 20 6 347 331 327 313 310 314 321 322 320 319 319 318 315 313 313 314 314 311 309 308 309 320 327 331 331 328 327 326 324 320 315 310 307 307 306 304 298 288 286
55 35 1 327 314 322 332 320 315 316 320 321 320 318 317 317 319 314 314 315 314 310 310 313 318 323 325 322 321 322 325 329 321 313 309 306 302 301 299 299 290 287 281
65 13 324 309 312 322 326 311 308 314 318 317 314 312 312 312 314 316 316 316 313 313 317 322 322 321 319 317 318 320 323 323 318 307 304 303 300 298 296 290 290 288 234
25 327 315 309 306 312 314 307 309 314 315 313 311 310 313 314 313 312 311 311 312 314 319 321 318 315 313 312 315 319 321 320 317 310 307 306 304 300 291 295 299 270 179
338 324 312 303 305 314 313 308 308 311 310 309 310 313 313 312 310 307 305 305 303 311 316 312 309 310 310 312 320 325 322 319 313 316 315 322 329 328 321 313 326 33 127
329 314 306 305 307 308 303 300 301 305 309 310 310 309 308 307 306 306 306 303 306 309 308 307 307 309 311 318 324 326 323 321 321 324 326 330 329 328 326 316 301 346 97
Height
1477 1475 1474 1473 1473 1474 1475 1476 1477 1477 1478 1478 1479 1479 1479 1480 1480 1480 1480 1480 1479 1478 1477 1476 1475 1475 1474 1474 1474 1474 1474 1473 1474 1475 1473 1471 1469 1466 1465 1464 1463 1462 1462
1478 1476 1473 1471 1470 1469 1469 1470 1472 1474 1474 1474 1475 1475 1475 1475 1474 1474 1474 1473 1473 1472 1471 1470 1469 1468 1468 1468 1468 1467 1467 1467 1468 1468 1468 1465 1461 1455 1456 1455 1453 1452 1453
1479 1476 1473 1471 1470 1468 1466 1466 1467 1469 1471 1472 1472 1472 1472 1471 1470 1469 1469 1469 1469 1468 1467 1466 1464 1463 1462 1461 1461 1462 1461 1460 1460 1460 1461 1458 1450 1447 1444 1443 1442 1442 1443
1479 1477 1475 1473 1471 1469 1467 1466 1465 1466 1468 1469 1470 1469 1469 1468 1467 1467 1467 1465 1464 1462 1460 1459 1458 1457 1456 1455 1455 1455 1454 1454 1452 1451 1450 1448 1445 1444 1438 1437 1435 1435 1435
1480 1478 1477 1475 1473 1471 1469 1467 1466 1465 1466 1466 1467 1467 1466 1465 1464 1463 1462 1460 1458 1456 1453 1451 1450 1448 1447 1445 1445 1445 1445 1444 1443 1441 1440 1439 1438 1436 1434 1430 1427 1426 1425
1481 1480 1479 1477 1475 1473 1471 1470 1468 1467 1466 1465 1465 1464 1463 1462 1460 1458 1457 1455 1454 1452 1450 1447 1444 1442 1440 1439 1438 1438 1437 1436 1434 1433 1431 1430 1428 1425 1425 1423 1420 1418 1417
1481 1480 1479 1477 1475 1473 1472 1471 1470 1469 1467 1466 1464 1463 1461 1460 1458 1455 1453 1451 1449 1448 1447 1444 1440 1437 1435 1433 1432 1431 1430 1429 1427 1425 1423 1421 1419 1417 1417 1416 1412 1410 1408
1481 1480 1479 1477 1475 1473 1472 1472 1471 1470 1468 1467 1465 1463 1461 1459 1457 1454 1451 1449 1446 1444 1443 1440 1437 1434 1430 1428 1426 1425 1424 1422 1420 1417 1415 1413 1411 1410 1408 1406 1405 1402 1399
1480 1480 1479 1477 1475 1473 1472 1472 1471 1469 1468 1466 1465 1463 1460 1458 1455 1453 1450 1447 1444 1441 1438 1435 1433 1430 1427 1424 1421 1418 1416 1414 1412 1409 1407 1405 1403 1401 1399 1398 1397 1396 1391
1479 1479 1478 1477 1475 1473 1472 1472 1471 1469 1468 1466 1464 1462 1459 1457 1454 1451 1448 1444 1441 1437 1433 1430 1427 1425 1422 1419 1415 1411 1408 1406 1403 1400 1398 1395 1393 1392 1390 1389 1388 1387 1383
1476 1477 1477 1476 1475 1474 1472 1472 1471 1469 1466 1464 1462 1459 1457 1454 1451 1448 1445 1441 1438 1434 1430 1425 1422 1419 1416 1413 1408 1404 1401 1398 1395 1392 1389 1385 1384 1382 1380 1379 1378 1376 1374
1473 1474 1475 1475 1475 1474 1472 1471 1470 1467 1465 1462 1460 1457 1454 1451 1448 1445 1441 1438 1434 1430 1426 1421 1417 1413 1409 1406 1402 1398 1393 1389 1386 1383 1380 1377 1375 1372 1370 1368 1365 1364 1362
1472 1473 1474 1473 1473 1472 1471 1469 1467 1465 1463 1460 1457 1454 1451 1448 1444 1441 1437 1434 1429 1425 1421 1416 1411 1407 1402 1398 1394 1391 1386 1382 1378 1375 1371 1367 1365 1361 1358 1355 1352 1350 1349
1471 1472 1472 1472 1471 1471 1469 1467 1465 1462 1460 1457 1454 1451 1448 1444 1440 1437 1433 1429 1425 1420 1416 1411 1406 1401 1396 1391 1387 1383 1378 1373 1369 1365 1362 1358 1354 1350 1347 1344 1341 1338 1336
1469 1470 1470 1470 1470 1469 1467 1465 1463 1460 1458 1455 1451 1448 1445 1441 1437 1432 1428 1424 1419 1415 1411 1406 1400 1395 1391 1386 1382 1376 1369 1364 1359 1354 1351 1347 1344 1340 1338 1335 1331 1328 1324
1466 1467 1468 1468 1468 1466 1465 1463 1460 1458 1456 1452 1449 1445 1440 1436 1431 1427 1422 1418 1414 1409 1405 1400 1395 1390 1385 1380 1375 1370 1362 1356 1351 1346 1341 1337 1333 1330 1327 1323 1320 1317 1314
1464 1465 1465 1465 1465 1464 1462 1459 1457 1455 1453 1450 1446 1441 1436 1431 1426 1421 1417 1412 1408 1403 1399 1394 1389 1384 1379 1375 1370 1364 1357 1350 1345 1339 1333 1328 1324 1321 1317 1312 1307 1303 1300
1462 1462 1463 1463 1462 1461 1459 1458 1456 1453 1450 1447 1443 1438 1432 1427 1422 1417 1412 1406 1401 1397 1392 1388 1383 1378 1374 1370 1365 1358 1350 1343 1337 1331 1326 1320 1315 1311 1308 1303 1297 1291 1288
1462 1462 1462 1461 1461 1459 1458 1456 1453 1451 1447 1443 1438 1434 1428 1422 1416 1411 1406 1400 1395 1390 1386 1381 1376 1371 1367 1363 1358 1351 1343 1336 1329 1323 1319 1314 1308 1303 1299 1294 1287 1281 1277
1460 1460 1460 1460 1459 1458 1455 1452 1450 1447 1442 1437 1432 1427 1422 1416 1410 1405 1400 1395 1390 1385 1379 1374 1370 1366 1360 1355 1350 1344 1337 1330 1323 1316 1310 1305 1300 1294 1289 1284 1278 1272 1267
1458 1457 1457 1456 1455 1453 1450 1447 1444 1441 1436 1430 1425 1421 1416 1410 1405 1400 1395 1390 1384 1379 1373 1368 1363 1359 1353 1348 1343 1338 1333 1326 1317 1310 1302 1296 1290 1284 1278 1273 1267 1262 1259
1454 1453 1452 1452 1450 1448 1445 1441 1438 1434 1429 1424 1420 1415 1410 1405 1400 1395 1390 1385 1379 1373 1367 1362 1356 1351 1346 1341 1336 1331 1327 1321 1314 1304 1297 1289 1281 1274 1267 1260 1255 1251 1248
1451 1449 1449 1447 1446 1443 1440 1436 1432 1428 1424 1419 1414 1410 1404 1399 1395 1390 1384 1379 1374 1369 1363 1358 1351 1345 1339 1334 1330 1325 1319 1313 1307 1298 1290 1281 1271 1263 1255 1249 1245 1241 1238
1447 1447 1445 1443 1441 1438 1436 1432 1428 1423 1418 1413 1408 1403 1398 1393 1388 1384 1380 1375 1370 1365 1360 1354 1348 1341 1334 1328 1324 1318 1311 1304 1297 1290 1281 1272 1263 1255 1248 1242 1237 1233 1230
1445 1443 1441 1438 1436 1433 1430 1427 1423 1418 1413 1408 1403 1398 1393 1388 1383 1378 1375 1371 1367 1363 1357 1351 1345 1338 1331 1326 1322 1316 1307 1299 1292 1284 1274 1265 1257 1248 1242 1237 1233 1230 1228
1441 1439 1437 1434 1431 1428 1425 1422 1418 1414 1409 1403 1398 1393 1388 1383 1378 1373 1368 1364 1361 1355 1351 1346 1342 1335 1330 1323 1317 1310 1302 1294 1287 1280 1271 1263 1255 1248 1242 1236 1232 1229 1226